Location: Esp�n
(42.4593°N, 0.2047°W)
Time: 08:17:44
(UTC+00:00)

Cosmos 2322 - Pass Details

Date: 07 June 2020
Orbit: 840 x 855 km, 71.0° (Epoch: 08 July)

Event Time Altitude Azimuth Distance (km) Brightness Sun altitude
Exits shadow 02:43:40 13° 180° (S) 2,248 5.5 -14.6°
Maximum altitude 02:48:31 50° 108° (ESE) 1,072 4.4 -14.0°
Drops below altitude 10° 02:54:02 10° 34° (NE) 2,493 7.6 -13.4°
Sets 02:56:33 0° 30° (NNE) 3,434 8.7 -13.1°
